Weather History for Valparaiso, FL

Change the Weather History Date:

Sunday, November 4, 2012

  Actual Average Record
Temperature  
Mean Temperature 70 °F -  
Max Temperature 81 °F 74 °F 85 °F (1956)
Min Temperature 59 °F 48 °F 26 °F (1966)
Cooling Degree Days 4    
Growing Degree Days 20 (Base 50)    
Moisture  
Dew Point 62 °F    
Average Humidity 86    
Maximum Humidity 100    
Minimum Humidity 51    
Precipitation  
Precipitation 0.00 in - - ()
Sea Level Pressure  
Sea Level Pressure 30.07 in    
Wind  
Wind Speed 4 mph (NW)    
Max Wind Speed 10 mph    
Max Gust Speed -    
Visibility 5 miles    
Events Fog    
Averages and records for this station are not official NWS values.
T = Trace of Precipitation, MM = Missing Value Source: NWS Daily Summary

Daily Weather History Graph

Daily Weather History Graph

Search for Another Location

Airport:

Trip Planner

Search our weather history database for the weather conditions in past years. The results will help you decide how hot, cold, wet, or windy it might be!

Date:

Astronomy

Nov. 04, 2012 Rise Set
Actual Time 6:03 AM CST 4:55 PM CST
Civil Twilight 5:38 AM CST 5:20 PM CST
Nautical Twilight 5:09 AM CST 5:49 PM CST
Astronomical Twilight 4:41 AM CST 6:17 PM CST
Moon 9:36 PM CST (11/4) 10:42 AM CST (11/4)
Length of Visible Light 11h 42m
Length of Day
10h 52m
Waning Gibbous, 72% of the Moon is Illuminated
Nov 4
Waning Gibbous
Nov 6
Last Quarter
Nov 13
New
Nov 20
First Quarter
Nov 28
Full

Hourly Weather History & Observations

Time (CST) Temp. Heat Index Dew Point Humidity Pressure Visibility Wind Dir Wind Speed Gust Speed Precip Events Conditions
12:43 AM 64.4 °F - 62.6 °F 94% 30.07 in 2.5 mi WNW 4.6 mph - N/A   Clear
12:50 AM 64.4 °F - 62.6 °F 94% 30.07 in 1.0 mi WNW 4.6 mph - N/A   Clear
12:55 AM 64.2 °F - 63.1 °F 96% 30.09 in 0.8 mi WNW 4.6 mph - N/A   Clear
1:04 AM 64.4 °F - 62.6 °F 94% 30.08 in 0.5 mi WNW 3.5 mph - N/A Fog Fog
1:21 AM 62.6 °F - 62.6 °F 100% 30.08 in 1.5 mi WNW 4.6 mph - N/A   Clear
1:30 AM 62.6 °F - 62.6 °F 100% 30.08 in 2.0 mi WNW 4.6 mph - N/A   Clear
1:55 AM 63.9 °F - 63.0 °F 97% 30.09 in 2.0 mi West 2.3 mph - N/A   Clear
1:00 AM 64.4 °F - 62.6 °F 94% 30.07 in 1.0 mi West 3.5 mph - N/A   Clear
1:22 AM 64.4 °F - 62.6 °F 94% 30.07 in 1.5 mi WNW 3.5 mph - N/A   Clear
1:45 AM 64.4 °F - 62.6 °F 94% 30.06 in 0.8 mi WNW 2.3 mph - N/A   Clear
1:55 AM 63.9 °F - 63.0 °F 97% 30.07 in 0.5 mi WNW 2.3 mph - N/A Fog Fog
2:55 AM 62.2 °F - 61.3 °F 97% 30.09 in 1.0 mi WNW 3.5 mph - N/A   Clear
3:22 AM 60.8 °F - 60.8 °F 100% 30.06 in 0.8 mi WNW 2.3 mph - N/A   Clear
3:45 AM 62.6 °F - 62.6 °F 100% 30.06 in 0.2 mi Calm Calm - N/A Fog Fog
3:55 AM 62.4 °F - 61.5 °F 97% 30.06 in 0.5 mi Calm Calm - N/A Fog Fog
4:22 AM 62.6 °F - 60.8 °F 94% 30.05 in 0.2 mi Calm Calm - N/A Fog Fog
4:40 AM 59.0 °F - 59.0 °F 100% 30.07 in 0.2 mi Calm Calm - N/A Fog Fog
4:55 AM 60.1 °F - 59.2 °F 97% 30.07 in 0.2 mi NW 1.2 mph - N/A Fog Fog
5:55 AM 60.8 °F - 60.3 °F 98% 30.10 in 0.1 mi WNW 2.3 mph - N/A Fog Fog
6:56 AM 61.9 °F - 61.3 °F 98% 30.12 in 0.1 mi NW 3.5 mph - N/A Fog Fog
7:30 AM 62.6 °F - 62.6 °F 100% 30.11 in 0.5 mi WNW 4.6 mph - N/A Fog Fog
7:39 AM 62.6 °F - 62.6 °F 100% 30.11 in 1.0 mi WNW 5.8 mph - N/A   Mostly Cloudy
7:47 AM 64.4 °F - 62.6 °F 94% 30.10 in 3.0 mi NW 4.6 mph - N/A   Mostly Cloudy
7:55 AM 64.6 °F - 63.9 °F 98% 30.12 in 6.0 mi NW 4.6 mph - N/A   Mostly Cloudy
8:55 AM 70.0 °F - 67.8 °F 93% 30.09 in 10.0 mi NNW 9.2 mph - N/A   Mostly Cloudy
9:55 AM 76.8 °F - 64.2 °F 65% 30.09 in 10.0 mi NW 8.1 mph - N/A   Mostly Cloudy
10:55 AM 79.5 °F - 62.1 °F 55% 30.07 in 10.0 mi NNW 8.1 mph - N/A   Mostly Cloudy
11:55 AM 80.4 °F 81.4 °F 61.3 °F 52% 30.05 in 10.0 mi WNW 8.1 mph - N/A   Mostly Cloudy
12:55 PM 79.9 °F - 60.4 °F 51% 30.02 in 10.0 mi NW 4.6 mph - N/A   Mostly Cloudy
1:55 PM 79.2 °F - 65.7 °F 63% 30.01 in 10.0 mi WNW 10.4 mph - N/A   Mostly Cloudy
2:55 PM 79.5 °F - 65.5 °F 62% 30.00 in 10.0 mi WNW 9.2 mph - N/A   Mostly Cloudy
3:55 PM 76.1 °F - 57.2 °F 52% 30.01 in 10.0 mi West 9.2 mph - N/A   Mostly Cloudy
4:55 PM 72.9 °F - 64.6 °F 75% 30.01 in 10.0 mi West 6.9 mph - N/A   Mostly Cloudy
5:55 PM 70.5 °F - 63.0 °F 77% 30.03 in 10.0 mi WNW 5.8 mph - N/A   Mostly Cloudy
6:55 PM 68.7 °F - 56.8 °F 66% 30.04 in 10.0 mi North 4.6 mph - N/A   Mostly Cloudy
7:55 PM 66.4 °F - 56.8 °F 71% 30.04 in 10.0 mi NNW 4.6 mph - N/A   Mostly Cloudy
8:55 PM 64.6 °F - 56.7 °F 75% 30.04 in 10.0 mi NNW 5.8 mph - N/A   Scattered Clouds
9:55 PM 63.1 °F - 56.7 °F 79% 30.07 in 10.0 mi NNW 4.6 mph - N/A   Clear
10:55 PM 61.7 °F - 56.7 °F 84% 30.06 in 10.0 mi North 6.9 mph - N/A   Clear